Retour au catalogue

METEOR 1-11 DEB

LostPO
NORAD 45503·DEBRIS·🇷🇺 Russia

Lancé Mar 30, 1972 depuis Plesetsk Cosmodrome

Loading…

Prochains Passages (prochaines 24 heures)

TLE

PériméSource: Space-Track

Époque: Mar 31, 2023, 07:02 UTC

1 45503U 72022F   23090.29364940  .00012576  00000-0  52908-2 0  9998
2 45503  81.2172 302.4850 0037262 283.2633  76.4392 14.25333441348308

Suivez METEOR 1-11 DEB en temps réel avec AllMySat

Download on the App Store